Regional Weather Roundup
Issued by NWS Mobile, AL

Home | Current Version | Previous Version | Text Only | Print | Product List | Glossary On
Versions: 1 2 3 4 5 6 7 8 9 10 11 12 13 14 15 16 17 18 19 20 21 22 23 24 25 26 27 28 29 30 31 32 33 34 35 36 37 38 39 40 41 42 43 44 45 46 47 48 49 50
000
ASUS44 KMOB 240212
RWRMOB
REGIONAL WEATHER ROUNDUP
NATIONAL WEATHER SERVICE MOBILE AL
900 PM CDT SAT SEP 23 2017

NOTE: "FAIR" INDICATES FEW OR NO CLOUDS BELOW 12,000 FEET WITH NO
      SIGNIFICANT WEATHER AND/OR OBSTRUCTIONS TO VISIBILITY.

  * THESE STATIONS ARE PART OF THE UNIVERSITY OF SOUTH ALABAMA
    MESONET AND ARE NOT UNDER NWS OR FAA QUALITY CONTROL.

ALZ061>064-240300-
COASTAL ALABAMA

CITY           SKY/WX    TMP DP  RH WIND       PRES   REMARKS
MOBILE REG APT CLEAR     73  69  87 W6        29.97R
BROOKLEY FIELD NOT AVBL
USA CAMPUS*    NOT AVBL
DOG RIVER*     NOT AVBL


CITY           SKY/WX    TMP DP  RH WIND       PRES   REMARKS
GULF SHORES    CLEAR     78  70  77 N3        29.94S

$$

ALZ051>060-240300-
INTERIOR SOUTHWEST AND SOUTH CENTRAL ALABAMA

CITY           SKY/WX    TMP DP  RH WIND       PRES   REMARKS
GREENVILLE     CLEAR     75  66  73 CALM      29.98R
EVERGREEN      CLEAR     73  70  90 CALM      29.97R
ATMORE*          N/A    N/A N/A N/A N3          N/A
ANDALUSIA/OPP  PTCLDY    75  69  81 CALM      29.97R
ANDALUSIA*       N/A     72  70  94 CALM      29.97R
FLORALA APT    NOT AVBL
FLORALA*         N/A     70  70 100 CALM      30.64R

$$

FLZ001>006-240300-
WESTERN FLORIDA PANHANDLE

CITY           SKY/WX    TMP DP  RH WIND       PRES   REMARKS
PENSACOLA      PTCLDY    83  68  60 NE6       29.94R
NAS PENSACOLA  PTCLDY    77  71  82 CALM      29.93R
MILTON         CLEAR     75  67  76 NE5       29.95R
WHTNG S FIELD  CLEAR     79  68  69 NE7       29.95R


CITY           SKY/WX    TMP DP  RH WIND       PRES   REMARKS
JAY*             N/A     75  68  78 CALM      29.96R
DUKE FIELD     CLEAR     74  63  66 CALM      29.95R
CRESTVIEW      CLEAR     73  64  73 CALM      29.97R
VALPARAISO     CLEAR     79  65  61 NE5       29.94R
DESTIN         CLEAR     83  66  56 NE5       29.94R

$$

MSZ076-079-240300-
INTERIOR SOUTHEAST MISSISSIPPI

CITY           SKY/WX    TMP DP  RH WIND       PRES   REMARKS
LEAKESVILLE*   NOT AVBL
AGRICOLA*        N/A     72  68  88 CALM      29.96S

$$

MARINE OBSERVATIONS

STATION/POSITION TIME  TEMP    WIND        PRES    WAVE
                       AIR SEA DIR/SP/G            HT/PER
                 (UTC) (F)     (DEG/KT/KT) (MB)    (FT/S)
PASCAGOULA       0148   75     340/  7/  8 1014.1R
PETIT BOIS ISLND 0148   81      40/  3/  4 1014.8R
GRAND BAY        0045   80     100/  3     1014.0S
KATRINA CUT      0130   82      30/  6     1013.5S
CEDAR POINT      0130   81     360/  3     1013.9R
E DAUPHIN ISLAND 0100   82      20/  4/  5 1013.4R
MIDDLE BAY LIGHT 0130   81     340/  8     1014.2R
USCG MOBILE BAY  0148   79 83  340/  3/  5 1014.2R
STATE DOCKS      0142   79 82              1014.3R
MEAHER PARK      0130   78     350/  2     1014.2S
WEEKS BAY        0045   77                 1014.0R
FORT MORGAN      0148   83      20/  4/  6   N/A
12 S ORANGE BCH  0150   82 84   60/  4/  4 1013.3R   2/ 5
PENSACOLA BAY    0142   84 85              1013.7R
64 S DAUPHIN ISL 0200   83 84   90/ 10/ 14 1013.2
67 S FORT MORGAN 0130   81      80/ 14     1012.5S

$$

SELECTED LOCATIONS ACROSS THE REGION

CITY           SKY/WX    TMP DP  RH WIND       PRES   REMARKS
NEW ORLEANS    PTCLDY    81  68  64 E6        29.93R
GULFPORT       NOT AVBL
PASCAGOULA AP  NOT AVBL
PASCAGOULA*      N/A    N/A N/A N/A CALM        N/A
HATTIESBURG    NOT AVBL
LAUREL         CLEAR     71  68  90 CALM      29.98F
MERIDIAN       CLEAR     71  70  96 CALM      29.98R
JACKSON        PTCLDY    80  70  71 SE9       29.96R
MONTGOMERY     CLEAR     76  66  71 NE3       29.98R
TROY           CLEAR     72  70  93 E3        29.98R
ASHFORD*         N/A     72  70  94 CALM      29.97R
DOTHAN         LGT RAIN  73  71  93 NE5       30.00R
PANAMA CITY    CLEAR     75  69  81 NE3       29.93R

$$




USA.gov is the U.S. government's official web portal to all federal, state and local government web resources and services.